Location: Beddau
(51.5575°N, 3.3561°W)
Time: 10:32:00
(UTC+00:00)

GP-B - Pass Details

Date: 03 March 2021
Orbit: 631 x 635 km, 89.8° (Epoch: 16 April)

Event Time Altitude Azimuth Distance (km) Brightness Sun altitude
Rises 19:22:55 0° 172° (S) 2,920 6.4 -14.0°
Reaches altitude 10° 19:25:08 10° 171° (S) 2,017 5.5 -14.4°
Maximum altitude 19:29:34 76° 86° (E) 661 3.0 -15.1°
Drops below altitude 10° 19:34:02 10° 2° (N) 2,035 5.8 -15.7°
Sets 19:36:16 0° 1° (N) 2,948 6.7 -16.1°
